Flag for U.S.A. Weather past 2 weeks in Kansas City, Missouri, U.S.A.

Now
35 °F

Overcast.


Feels Like: 35 °F
Forecast: 27 / 43 °F
Wind: No wind

Location: Kansas City Downtown Airport

Current Time: Dec 19, 2014 at 8:16:25 PM

Latest Report: Dec 19, 2014 at 7:54 PM


Visibility: 8 mi

Pressure: 30.23 "Hg

Humidity: 85%

Dew point: 31 °F

Location of Kansas CityLocation

Historic Weather in Kansas City — Graph

°F

Kansas City temperature yesterday

Maximum temperature yesterday: 33 °F (at 12:54 PM)
Minimum temperature yesterday: 29 °F (at 12:54 AM)
Average temperature yesterday: 31 °F

Past Weeks' High & Low Weather Summary

 TemperatureHumidityPressure
High64 °F (Dec 14, 2:54 PM)97% (Dec 5, 12:54 AM)30.58 "Hg (Dec 5, 12:54 AM)
Low25 °F (Dec 17, 5:54 AM)48% (Dec 8, 2:54 PM)29.55 "Hg (Dec 15, 7:54 AM)
Average40 °F83%30.21 "Hg
* Reported Dec 4 6:54 PM — Dec 19 6:54 PM, Kansas City, Weather by CustomWeather, © 2014

Note: Actual official high and low records may vary slightly from our data, if they occured in-between our weather recording intervals... More about our weather records

Advertising

Kansas City weather history for previous 24 hours

 ConditionsComfort  
Time TempWeatherWind HumidityBarometerVisibility
6:54 PM
Dec 19
35 °FOvercast.No wind85%30.22 "Hg8 mi
5:54 PM35 °FOvercast.No wind85%30.23 "Hg7 mi
4:54 PM35 °FOvercast.No wind82%30.23 "Hg6 mi
3:54 PM35 °FFog.No wind85%30.23 "Hg6 mi
2:54 PM34 °FFog.5 mph85%30.24 "Hg6 mi
1:54 PM34 °FFog.No wind85%30.24 "Hg6 mi
12:54 PM33 °FFog.No wind88%30.27 "Hg6 mi
11:54 AM33 °FFog.3 mph85%30.30 "Hg4 mi
10:54 AM32 °FIce fog.3 mph88%30.32 "Hg6 mi
9:54 AM32 °FIce fog.7 mph88%30.31 "Hg6 mi
8:54 AM32 °FIce fog.3 mph88%30.29 "Hg6 mi
7:54 AM32 °FIce fog.7 mph88%30.29 "Hg6 mi
6:54 AM33 °FFog.6 mph88%30.27 "Hg5 mi
5:54 AM33 °FFog.3 mph88%30.27 "Hg5 mi
4:54 AM33 °FFog.5 mph88%30.27 "Hg5 mi
3:54 AM33 °FFog.No wind88%30.27 "Hg6 mi
2:54 AM33 °FFog.No wind88%30.29 "Hg5 mi
1:54 AM33 °FFog.No wind85%30.29 "Hg5 mi
12:59 AM32 °FIce fog.3 mph96%30.26 "Hg3 mi
11:54 PM
Dec 18
32 °FIce fog.6 mph96%30.29 "Hg1 mi
10:54 PM33 °FFog.6 mph88%30.29 "Hg4 mi
9:54 PM33 °FFog.6 mph88%30.28 "Hg5 mi
8:54 PM33 °FLow clouds.6 mph88%30.27 "Hg7 mi
Weather by CustomWeather, © 2014

See weather overviewHow to use our weather pages